www.pogodaiklimat.ru

Погода и климат >> Архив погоды >> КНДР >> Кэсон


ПОГОДА в Кэсоне

  • Прогноз погоды в Кэсоне
  • Монитор погоды в Кэсоне

АРХИВ ПОГОДЫ в Кэсоне

Время (UTC), дата Ветер
(напр.,м/с)
 
Видим.   Явления Облачность Т
(С)
Тd
(С)
f
(%)
Тe
(С)
Тes
(С)
Комфортность P
(гПа)
Po
(гПа)
Тmin
(С)
Tmax
(С)
R
(мм)
R24
(мм)
S
(см)
00 12.07 штиль 0 25 км 4/0
[Ci]
+22.1 +17.9 77 +27 +39 душно 1008.7 1000.5 +19.4
03 12.07 З 3 22 км 4/4 600 м
[Sc]
+26.8 +19.1 63 +32 +42 очень
душно
1007.7 999.7
06 12.07 ЮЗ 4 22 км 6/6 600 м
[Sc]
+27.6 +19.1 60 +33 +37 очень
душно
1006.3 998.3
09 12.07 З 4 22 км 10/10 600 м
[Sc]
+24.1 +18.8 72 +29 +29 душно 1005.8 997.7
12 12.07 З 2 20 км 10/8 600 м
[Sc Ci sp]
+22.4 +18.8 80 +28 +28 душно 1006.4 998.2 +27.6
15 12.07 штиль 0 16 км 10/10 600 м
[Sc]
+22.1 +18.9 82 +27 +27 душно 1006.4 998.2
18 12.07 штиль 0 16 км слаб. дождь 10/0 600 м
[As op]
+21.7 +18.5 82 +26 +26 душно 1005.6 997.4 0.0
21 12.07 штиль 0 4500 м 10/10 300 м
[Sc]
+21.9 +19.2 85 +27 +27 душно 1004.8 996.6 0.0
00 13.07 штиль 0 11 км 10/10 600 м
[Sc]
+24.5 +20.9 80 +31 +31 очень
душно
1004.5 996.4 +21.6 0.0
03 13.07 Ю 1 18 км 8/8 600 м
[Sc]
+27.6 +20.1 64 +34 +39 очень
душно
1003.1 995.2
06 13.07 штиль 0 11 км слаб. дождь 10/10 600 м
[Sc]
+27.0 +19.3 63 +33 +33 очень
душно
1001.5 993.5 0.0
09 13.07 З 2 13 км 8/8 600 м
[Sc]
+26.2 +19.7 67 +32 +32 очень
душно
1000.8 992.8 1
12 13.07 З 1 18 км 8/0
[Ci sp]
+23.2 +19.1 78 +30 +30 очень
душно
1001.7 993.6 +29.5 1
15 13.07 штиль 0 18 км ясно +21.9 +19.1 84 +27 +27 душно 1002.6 994.5
18 13.07 штиль 0 5000 м 10/10 600 м
[Sc]
+21.6 +18.9 85 +26 +26 душно 1002.7 994.5
21 13.07 штиль 0 600 м туман ?/? +21.1 +18.6 86 +25 +25 комфорт 1002.7 994.6
00 14.07 штиль 0 1500 м дымка {туман} 10/10 600 м
[Sc]
+22.5 +19.4 83 +29 +29 очень
душно
1003.3 995.2 +21.0
03 14.07 штиль 0 18 км 3/3 600 м
[Sc]
+27.6 +20.7 66 +34 +53 опасность
солнечного
удара
1003.6 995.6
06 14.07 З 3 12 км 3/3 600 м
[Sc]
+31.0 +20.2 53 +38 +46 очень
душно
1002.5 994.6
09 14.07 З 2 13 км 4/0
[Ci sp]
+28.6 +17.2 50 +33 +35 очень
душно
1002.7 994.8
12 14.07 З 1 10 км ясно +24.0 +19.7 77 +29 +29 душно 1004.4 996.3 +31.2
15 14.07 штиль 0 10 км ясно +22.8 +19.2 80 +29 +29 очень
душно
1005.8 997.6
18 14.07 штиль 0 10 км ясно +21.2 +18.0 82 +25 +25 комфорт 1005.9 997.7
21 14.07 штиль 0 12 км 10/10 600 м
[Sc]
+20.6 +17.7 83 +24 +24 комфорт 1007.0 998.8
00 15.07 штиль 0 12 км 10/10 600 м
[Sc]
+23.0 +19.7 82 +30 +30 очень
душно
1007.7 999.6 +20.4
03 15.07 штиль 0 16 км 10/10 600 м
[Sc]
+27.0 +20.5 68 +34 +34 очень
душно
1007.7 999.6
06 15.07 штиль 0 10 км в посл. час дождь 10/10 600 м
[Sc]
+26.4 +20.5 70 +33 +33 очень
душно
1007.8 999.7 0.0
09 15.07 ЮЗ 5 20 км гроза, ливневой дождь 10/10 300 м
[Cb calv]
+21.1 +17.9 82 +25 +25 комфорт 1008.5 1000.3 0.0
12 15.07 штиль 0 11 км в посл. час дождь {ливн. осадки} 10/10 600 м
[Sc]
+20.3 +18.0 87 +23 +23 комфорт 1009.7 1001.5 +27.2 16
15 15.07 штиль 0 18 км 10/0
[Cs]
+20.7 +17.8 83 +24 +24 комфорт 1010.4 1002.2
18 15.07 штиль 0 16 км 10/0 1500 м
[As op]
+20.4 +17.6 84 +24 +24 комфорт 1010.4 1002.2
21 15.07 штиль 0 16 км 10/10 600 м
[Sc]
+20.8 +18.1 85 +25 +25 комфорт 1011.5 1003.3
00 16.07 З 1 14 км 10/10 600 м
[Sc]
+22.0 +19.2 84 +27 +27 душно 1010.9 1002.7 +20.3
03 16.07 В 1 17 км 3/3
[Sc]
+26.7 +22.4 77 +35 +51 опасность
солнечного
удара
1010.5 1002.5
06 16.07 ЮВ 5 16 км 9/9 600 м
[Sc]
+27.7 +21.8 70 +36 +36 очень
душно
1010.8 1002.7
09 16.07 ЮЗ 3 16 км 8/5 600 м
[Sc Ci sp]
+27.6 +21.6 70 +35 +36 очень
душно
1010.6 1002.6
12 16.07 З 1 8000 м 5/0 1500 м
[Ac trans]
+24.1 +20.4 80 +30 +30 очень
душно
1011.4 1003.3 +29.2
15 16.07 штиль 0 4400 м 4/0
[Ci sp]
+23.0 +20.1 84 +30 +30 очень
душно
1012.5 1004.3
18 16.07 штиль 0 5000 м 10/0 1500 м
[Ac As]
+22.7 +19.9 84 +29 +29 очень
душно
1012.9 1004.7
21 16.07 штиль 0 800 м туман ?/? +21.7 +20.0 90 +27 +27 душно 1013.0 1004.8
00 17.07 штиль 0 800 м туман ?/? +22.4 +19.1 82 +28 +28 душно 1012.7 1004.5 +21.2
03 17.07 штиль 0 1900 м дымка {туман} 10/10 600 м
[Sc]
+26.1 +21.3 75 +33 +33 очень
душно
1013.0 1004.9
06 17.07 ЮЗ 2 10 км 10/10 600 м
[Sc]
+27.0 +21.0 70 +34 +34 очень
душно
1012.2 1004.1
09 17.07 штиль 0 12 км 10/10 600 м
[Sc]
+27.5 +20.4 65 +34 +34 очень
душно
1011.7 1003.7
12 17.07 штиль 0 8000 м 10/10 600 м
[Sc]
+25.0 +19.8 73 +31 +31 очень
душно
1011.8 1003.6 +29.5
15 17.07 штиль 0 8000 м 8/0
[Ci sp]
+23.5 +19.5 78 +29 +29 душно 1012.2 1004.0
18 17.07 штиль 0 6000 м 10/0 1500 м
[Ac As]
+21.8 +18.8 83 +27 +27 душно 1011.9 1003.7
21 17.07 штиль 0 8000 м 10/0 1500 м
[Ac As]
+21.4 +18.5 84 +26 +26 душно 1011.9 1003.7
00 18.07 штиль 0 3600 м дымка 10/0 2000 м
[Ac As]
+25.4 +21.3 78 +32 +36 очень
душно
1011.5 1003.4 +21.2
03 18.07 штиль 0 5000 м 1/1 600 м
[Cu med, cong]
+30.3 +22.7 64 +40 +64 опасность
солнечного
удара
1011.3 1003.4
06 18.07 ЮВ 2 15 км 8/8 600 м
[Sc]
+31.6 +21.4 55 +40 +43 очень
душно
1008.1 1000.1
09 18.07 ЮЗ 3 15 км 3/3 600 м
[Sc]
+31.1 +20.3 53 +38 +39 очень
душно
1007.4 999.5
12 18.07 ЮЗ 1 19 км ясно +26.2 +20.6 71 +33 +33 очень
душно
1008.5 1000.5 +32.1
15 18.07 штиль 0 16 км ясно +24.5 +20.2 77 +30 +30 очень
душно
1009.1 1001.0
18 18.07 штиль 0 7000 м 10/0 1500 м
[As op]
+22.8 +19.2 80 +29 +29 очень
душно
1008.6 1000.4
21 18.07 штиль 0 8000 м 10/0 1500 м
[As op]
+21.7 +18.7 83 +27 +27 душно 1008.9 1000.7

 

Местоположение метеостанции Кэсон (КНДР): широта 37.97 долгота 126.56 высота над уровнем моря 70 м.

В архиве по умолчанию представлена погода в Кэсоне за последнюю неделю. Архивные данные за месяц целиком и за предыдущие месяцы, начиная с января 2011 года, Вы можете получить, выбрав интересующий диапазон дат из раскрывающегося списка и нажав кнопку "Ввод!".


*Определитесь, кто Вы:
робот инопланетянин человек

Внимание! Время в таблицах - всемирное. Для получения местного времени необходимо прибавить поправку, которая равна 9 ч.

Смотрите также архив погоды в соседних городах и на ближайших метеорологических станциях:

Погода в Мунсане (Корея) (20 км)
Погода в Тондучхоне (Корея) (45 км)
Погода в Инчхоне (Корея) (56 км)
Погода в Сеуле (Корея) (57 км)
Погода в Сингяе (КНДР) (59 км)
Погода в Чхорвоне (Корея) (68 км)
Погода в Хэджу (КНДР) (76 км)
Погода в Букчунчеоне (Корея) (78 км)
Погода в Пхенганге (КНДР) (80 км)
Погода в Сувоне (Корея) (86 км)

Пояснения к столбцам:

Ветер - указаны скорость ветра в м/с - средняя за 10 мин, порывы в срок и между сроками (в фигурных скобках) и направление, откуда дует ветер: С - северный, СВ - северо-восточный, В - восточный, ЮВ - юго-восточный, Ю - южный, ЮЗ - юго-западный, З - западный, СЗ - северо-западный.
Видимость - горизонтальная дальность видимости в метрах или километрах. При видимости от 1 до 10 км при отсутствии осадков обычно наблюдается дымка, при ухудшении видимости до 1 км и менее - туман. В сухую погоду видимость может ухудшаться дымом, пылью или мглою.
Явления - указаны атмосферные явления, наблюдавшиеся в срок или в последний час перед сроком; фигурными скобками обозначены явления, наблюдавшиеся между сроками (за 1-3 часа до срока); квадратными скобками обозначены град или гололедные отложения с указанием их диаметра в мм.
Облачность - указаны через наклонную черту общая и нижняя облачность в баллах и высота нижней границы облаков в метрах; квадратными скобками обозначены формы облаков: Ci - перистые, Cs - перисто-слоистые, Cc - перисто-кучевые, Ac - высококучевые, As - высокослоистые, Sc - слоисто-кучевые, Ns - слоисто-дождевые, Cu - кучевые, Cb - кучево-дождевые. Подробнее классификацию облаков см. в Атласе облаков (PDF).
T - Температура воздуха - температура, измеренная на высоте 2 м над землей.
Td - Температура точки росы - температура, при понижении до которой содержащийся в воздухе водяной пар достигнет насыщения.
f - Относительная влажность воздуха - влажноcть воздуха, измеренная на высоте 2 м над землей.
Te - Эффективная температура - температура, которую ощущает одетый по сезону человек в тени. Характеристика душности погоды. При расчете учитывается влияние влажности воздуха и скорости ветра на теплоощущения человека.
Tes - Эффективная температура на солнце - температура, которую ощущает человек, с поправкой на солнечный нагрев. Характеристика знойности погоды. Зависит от высоты солнца над горизонтом, облачности и скорости ветра. Ночью, в пасмурную погоду, а также при ветре 12 м/с и более поправка равна нулю.
P - Атмосферное давление - приведенное к уровню моря атмосферное давление.
Po - Атмосферное давление - измеренное на уровне метеостанции атмосферное давление.
Tmin - Минимальная температура - минимум температуры воздуха на высоте 2 м над землей.
Tmax - Максимальная температура - максимум температуры воздуха на высоте 2 м над землей.
R - Количество осадков - Количество выпавших осадков за период времени, мм. При наведении курсора мыши на число - период времени, за который выпало указанное количество осадков.
R24 - Количество осадков - Количество выпавших осадков за 24 часа, мм.
S - Снежный покров - Высота снежного покрова, см. При наведении курсора мыши на число - состояние снежного покрова и степень покрытия местности в баллах.